#timestamp,LO_Frequency,Hit,StdDev 
1605967215.0,286046998.2,N
1605967215.9,286046998.2,N
1605967235.8,286047000.8,N
1605967255.6,286046998.5,N
1605967275.4,286047001.1,N
1605967295.3,286047000.9,N
1605967315.1,286047000.9,N
1605967335.9,286046998.1,N
1605967355.7,286046998.8,N
1605967375.5,286046998.3,N
1605967395.4,286047000.8,N
1605967415.2,286047002.8,N
1605967435.0,286047002.8,N
1605967435.9,286047002.8,N
1605967455.8,286047002.8,N
1605967475.6,286047002.8,N
1605967495.5,286047001.4,N
1605967515.3,286047004.3,N
1605967535.1,286047003.9,N
1605967555.9,286047003.3,N
1605967575.7,286047002.9,N
1605967595.5,286047005.3,N
1605967615.4,286047004.5,N
1605967635.2,286047004.8,N
1605967655.1,286047002.9,N
1605967656.0,286047002.9,N
1605967675.8,286047003.3,N
1605967695.6,286047003.5,N
1605967715.5,286047003.5,N
1605967735.3,286047003.9,N
1605967755.1,286047004.4,N
1605967775.9,286047001.3,N
1605967795.7,286047003.9,N
1605967815.6,286047003.9,N
1605967835.4,286047001.3,N
1605967855.2,286047001.5,N
1605967875.1,286047001.3,N
1605967876.0,286047001.3,N
1605967895.8,286047004.6,N
1605967915.6,286047008.0,Y
1605967935.5,286047008.9,P
1605967955.3,286047009.6,P
1605967975.2,286047009.8,P
1605967995.9,286047012.2,Y
1605968015.7,286047004.2,P
1605968065.6,286047000.0,E
1605968075.5,286046999.7,N
1605968095.4,286047000.5,P
1605968115.2,286047000.0,N
1605968135.0,286047002.7,Y
1605968135.9,286047002.7,P
1605968155.8,286047000.3,N
1605968175.6,286047000.6,N
1605968195.5,286047000.7,N
1605968215.3,286046999.9,N
1605968235.1,286047000.3,N
1605968255.9,286046998.3,N
1605968275.7,286046996.5,Y
1605968295.5,286046998.8,P
1605968315.4,286046998.6,N
1605968335.2,286046998.8,N
1605968355.1,286046998.4,N
1605968356.0,286046998.4,N
1605968375.8,286046999.0,N
1605968395.6,286046997.3,Y
1605968415.5,286047001.1,P
1605968435.3,286046998.3,N
1605968455.1,286047001.1,N
1605968475.9,286046998.1,N
1605968495.7,286047000.9,N
1605968515.6,286046998.3,N
1605968535.4,286046998.7,N
1605968555.2,286046996.8,N
1605968575.1,286046999.5,N
1605968576.0,286046999.5,N
1605968595.8,286046996.9,N
1605968615.6,286046997.3,N
1605968635.5,286046994.9,Y
1605968655.3,286046999.6,P
1605968675.2,286046996.6,P
1605968695.9,286046997.4,N
1605968715.7,286046995.3,Y
1605968735.6,286046996.9,P
1605968755.4,286046997.2,P
1605968775.3,286046997.7,P
1605968795.1,286046999.5,N
1605968796.0,286046999.5,N
1605968815.8,286046999.1,N
1605968835.7,286047000.0,N
1605968855.5,286047000.1,N
1605968875.3,286047000.2,N
1605968895.2,286047000.2,N
1605968915.0,286047000.1,N
1605968915.9,286047000.1,N
1605968935.8,286047000.4,N
1605968955.6,286047002.4,N
1605968975.4,286047002.2,N
1605968995.3,286047000.1,N
1605969015.1,286047002.7,N
1605969035.8,286047002.4,N
1605969055.7,286047001.7,N
1605969075.5,286047003.9,N
1605969095.4,286047003.1,N
1605969115.2,286047003.5,N
1605969135.0,286047003.8,N
1605969135.9,286047003.8,N
1605969155.8,286047003.3,N
1605969175.6,286047003.7,N
1605969195.4,286047004.1,N
1605969215.3,286047003.7,N
1605969235.1,286047004.0,N
1605969255.9,286047003.2,N
1605969275.7,286047007.6,Y
1605969295.5,286047003.7,P
1605969315.4,286047006.0,P
1605969335.2,286047003.2,N
1605969355.0,286047003.5,N
1605969355.9,286047003.5,N
1605969375.8,286047005.3,Y
1605969395.6,286047001.4,P
1605969415.5,286047001.9,N
1605969435.3,286047001.9,N
1605969455.1,286047003.6,Y
1605969475.9,286046999.8,P
1605969495.7,286047000.4,N
1605969515.6,286047000.0,N
1605969535.4,286047000.2,N
1605969555.2,286047000.8,N
1605969605.1,286047001.1,E
1605969615.0,286046998.6,N
1605969615.9,286046998.6,P
1605969635.8,286046997.4,P
1605969655.6,286046997.7,Y
1605969675.4,286046999.2,P
1605969695.3,286046998.2,P
1605969715.1,286047002.7,P
1605969735.9,286047002.7,N
1605969755.7,286047002.6,N
1605969775.5,286047002.3,N
1605969795.4,286047003.9,N
1605969815.2,286047003.9,N
1605969835.0,286047003.3,N
1605969835.9,286047003.3,N
1605969855.8,286047004.1,N
1605969875.6,286047003.9,N
1605969895.5,286047003.2,N
1605969915.3,286047004.5,N
1605969935.1,286047007.3,Y
1605969955.9,286047003.3,P
1605969975.7,286047003.9,P
1605969995.5,286047004.4,P
1605970015.4,286047001.9,N
1605970035.2,286047002.8,N
1605970055.1,286047002.6,Y
1605970056.0,286047002.6,P
1605970075.8,286046999.1,P
1605970095.6,286046998.6,N
1605970115.5,286047000.7,N
1605970135.3,286047000.2,N
1605970155.1,286047000.5,N
1605970175.9,286047000.3,N
1605970195.7,286047001.2,N
1605970215.6,286046999.0,N
1605970235.4,286046999.6,N
1605970255.2,286046996.9,N
1605970275.1,286046997.0,N
1605970276.0,286046997.0,N
1605970295.8,286046999.6,N
1605970315.7,286046996.5,N
1605970335.5,286046996.5,N
1605970355.3,286046997.6,N
1605970375.2,286046997.9,N
1605970395.9,286046996.8,N
1605970415.7,286046995.7,N
1605970435.6,286046995.6,N
1605970455.4,286046995.9,N
1605970475.2,286046995.7,N
1605970495.1,286046995.3,N
1605970496.0,286046995.3,N
1605970515.8,286046997.1,N
1605970535.7,286046996.8,N
1605970555.5,286046996.7,N
1605970575.3,286046997.5,N
1605970595.2,286046996.7,N
1605970615.0,286046997.2,N
1605970615.9,286046997.2,N
1605970635.8,286046997.0,N
1605970655.6,286046999.1,N
1605970675.4,286046999.3,N
1605970695.3,286046998.9,N
1605970715.1,286046998.3,N
1605970735.8,286046998.8,N
1605970755.7,286046999.0,N
1605970775.5,286046997.6,N
1605970795.3,286046997.6,N
